Flag for U.S.A. Weather past 2 weeks in Chico, California, U.S.A.

Now
68 °F

Clear.


Feels Like: 68 °F
Forecast: 67 / 94 °F
Wind: 8 mph from South

Location: Chico Municipal

Current Time: Jul 6, 2015 at 5:25:20 AM

Latest Report: Jul 6, 2015 at 4:55 AM


Visibility: 10 mi

Pressure: 29.95 "Hg

Humidity: 69%

Dew point: 57 °F

Location of ChicoLocation

Historic Weather in Chico — Graph

°F

Chico temperature yesterday

Maximum temperature yesterday: 95 °F (at 4:50 PM)
Minimum temperature yesterday: 72 °F (at 5:55 AM)
Average temperature yesterday: 83 °F

Past Weeks' High & Low Weather Summary

 TemperatureHumidityPressure
High108 °F (Jun 30, 4:50 PM)69% (Jul 6, 4:15 AM)30.02 "Hg (Jul 6, 4:15 AM)
Low59 °F (Jun 22, 5:55 AM)9% (Jun 22, 4:55 PM)29.69 "Hg (Jul 4, 6:55 PM)
Average83 °F35%29.86 "Hg
* Reported Jun 21 4:15 AM — Jul 6 4:15 AM, Chico, Weather by CustomWeather, © 2015

Note: Actual official high and low records may vary slightly from our data, if they occured in-between our weather recording intervals... More about our weather records

Advertising

Chico weather history for previous 24 hours

 ConditionsComfort  
Time TempWeatherWind HumidityBarometerVisibility
4:15 AM
Mon, Jul 6
68 °FClear.10 mph69%29.95 "Hg10 mi
3:55 AM70 °FClear.8 mph64%29.93 "Hg10 mi
3:35 AM70 °FClear.8 mph64%29.93 "Hg10 mi
3:15 AM72 °FClear.8 mph61%29.93 "Hg10 mi
2:55 AM72 °FClear.10 mph61%29.93 "Hg10 mi
2:35 AM72 °FClear.12 mph61%29.92 "Hg10 mi
2:15 AM73 °FClear.12 mph57%29.92 "Hg10 mi
1:55 AM73 °FClear.13 mph57%29.91 "Hg10 mi
1:35 AM73 °FClear.No wind57%29.91 "Hg10 mi
1:15 AM75 °FClear.No wind54%29.90 "Hg10 mi
12:55 AM75 °FClear.13 mph54%29.89 "Hg10 mi
12:15 AM77 °FClear.15 mph51%29.88 "Hg10 mi
11:55 PM
Sun, Jul 5
79 °FClear.15 mph51%29.87 "Hg10 mi
11:15 PM82 °FClear.14 mph45%29.86 "Hg10 mi
10:55 PM82 °FClear.9 mph45%29.86 "Hg10 mi
10:35 PM82 °FClear.14 mph45%29.86 "Hg10 mi
10:15 PM84 °FClear.16 mph43%29.86 "Hg10 mi
9:55 PM86 °FClear.21 mph40%29.85 "Hg10 mi
9:35 PM88 °FSunny.16 mph38%29.83 "Hg10 mi
9:15 PM88 °FSunny.13 mph38%29.82 "Hg10 mi
8:15 PM91 °FSunny.12 mph36%29.80 "Hg10 mi
7:55 PM91 °FSunny.9 mph38%29.80 "Hg10 mi
7:35 PM91 °FSunny.10 mph38%29.79 "Hg10 mi
7:15 PM93 °FSunny.12 mph39%29.78 "Hg10 mi
6:55 PM93 °FSunny.9 mph34%29.78 "Hg10 mi
5:50 PM95 °FBroken clouds.12 mph28%29.78 "Hg40 mi
4:50 PM95 °FBroken clouds.12 mph28%29.80 "Hg40 mi
3:48 PM93 °FBroken clouds.10 mph34%29.82 "Hg40 mi
2:48 PM91 °FBroken clouds.10 mph36%29.84 "Hg40 mi
1:48 PM90 °FBroken clouds.7 mph38%29.85 "Hg40 mi
12:50 PM86 °FBroken clouds.7 mph43%29.87 "Hg40 mi
11:47 AM84 °FBroken clouds.7 mph43%29.88 "Hg40 mi
9:55 AM81 °FScattered clouds.12 mph42%29.88 "Hg40 mi
8:50 AM75 °FScattered clouds.7 mph50%29.88 "Hg40 mi
6:50 AM72 °FScattered clouds.9 mph57%29.85 "Hg40 mi
6:15 AM72 °FClear.10 mph57%29.83 "Hg10 mi
5:55 AM72 °FClear.10 mph57%29.82 "Hg10 mi
5:35 AM73 °FClear.10 mph53%29.81 "Hg10 mi
5:15 AM73 °FClear.13 mph53%29.80 "Hg10 mi
Weather by CustomWeather, © 2015

See weather overviewHow to use our weather pages